Transit 2A - Orbit

View from above orbital plane
View from above orbital plane
View from above satellite
View from above satellite

Ground track
Ground track

The orbit data is extracted from the following two-line orbital elements,

1 00045U 60007A   13144.15847700  .00000246  00000-0  90209-4 0  8622
2 00045 066.6962 340.1526 0255076 032.3294 083.6260 14.32625127752760
Epoch (UTC): 24 May 2013 03:48:12
Eccentricity: 0.0255076
inclination: 66.6962°
perigee height: 600 km
apogee height: 965 km
right ascension of ascending node: 340.1526°
argument of perigee: 32.3294°
revolutions per day: 14.32625127
mean anomaly at epoch: 83.6260°
orbit number at epoch: 75276

The dashed part of the orbit path shows where the satellite is in the earth's shadow,  

Developed and maintained by Chris Peat, Heavens-Above GmbH. Please read the updated FAQ before sending e-mail. Imprint. DLR